EW5042 Weather Reports


time (UTC)temp
C
wind
direction
speed
KPH
gust
KPH
rain 1hr
cm
rain 24hr
cm
rain mn
cm
humidity
%
barometer
mb
20260507234534 17 269 0.0 6.4 0.00 0.00 0.00 83 1009.4
20260507233029 17 320 0.0 12.9 0.00 0.00 0.00 83 1009.7
20260507231535 17 55 1.6 8.0 0.00 0.00 0.00 83 1009.9
20260507230027 17 269 0.0 8.0 0.00 0.00 0.00 82 1009.6
20260507224532 17 239 3.2 11.3 0.00 0.00 0.00 81 1009.3
20260507223024 17 253 1.6 4.8 0.00 0.00 0.00 79 1009.7
20260507221522 17 148 0.0 0.0 0.00 0.00 0.00 78 1009.4
20260507220033 18 148 0.0 0.0 0.00 0.00 0.00 77 1009.4
20260507214517 18 148 0.0 1.6 0.00 0.00 0.00 77 1009.5
20260507213016 18 178 0.0 8.0 0.00 0.00 0.00 76 1009.5
20260507211517 18 279 0.0 14.5 0.00 0.00 0.00 75 1009.8
20260507210016 18 215 0.0 4.8 0.00 0.00 0.00 74 1009.7
20260507204515 18 76 0.0 0.0 0.00 0.00 0.00 73 1009.3
20260507203015 18 78 0.0 0.0 0.00 0.00 0.00 73 1009.4
20260507201514 18 85 0.0 4.8 0.00 0.00 0.00 73 1009.3
20260507200018 18 344 0.0 6.4 0.00 0.00 0.00 73 1009.4
20260507194514 18 165 0.0 11.3 0.00 0.00 0.00 73 1009.2
20260507193013 18 55 0.0 8.0 0.00 0.00 0.00 72 1009.1
20260507191513 18 112 0.0 6.4 0.00 0.00 0.00 72 1009.0
20260507190011 18 310 0.0 8.0 0.00 0.00 0.00 72 1009.0
20260507184511 18 261 3.2 14.5 0.00 0.00 0.00 71 1008.8
20260507183010 18 321 4.8 24.1 0.00 0.00 0.00 71 1008.3
20260507181510 18 281 6.4 20.9 0.00 0.00 0.00 71 1008.3
20260507180009 18 134 3.2 20.9 0.00 0.00 0.00 71 1008.7
20260507174508 18 340 3.2 24.1 0.00 0.00 0.00 71 1009.0
20260507173012 18 233 6.4 19.3 0.00 0.00 0.00 71 1008.8
20260507171514 18 308 3.2 25.7 0.00 0.00 0.00 70 1009.0
20260507170007 19 271 3.2 20.9 0.00 0.00 0.00 69 1009.0
20260507164507 19 257 4.8 30.6 0.00 0.00 0.00 69 1008.3
20260507163006 19 303 8.0 27.4 0.00 0.00 0.00 69 1008.2
20260507161505 19 269 6.4 33.8 0.00 0.00 0.00 67 1008.3
20260507160012 20 270 3.2 24.1 0.00 0.00 0.00 65 1008.3
20260507154506 20 296 9.7 25.7 0.00 0.00 0.00 65 1008.2
20260507153006 20 28 4.8 32.2 0.00 0.00 0.00 64 1008.4
20260507151504 20 171 8.0 32.2 0.00 0.00 0.00 62 1008.4
20260507150003 20 340 8.0 24.1 0.00 0.00 0.00 61 1008.7
20260507144509 20 173 11.3 30.6 0.00 0.00 0.00 60 1008.5
20260507143003 21 288 11.3 30.6 0.00 0.00 0.00 58 1008.4
20260507141600 21 355 8.0 27.4 0.00 0.00 0.00 57 1008.4
20260507140104 21 260 11.3 30.6 0.00 0.00 0.00 55 1008.6
20260507134559 21 158 4.8 27.4 0.00 0.00 0.00 54 1009.1
20260507133057 22 272 8.0 29.0 0.00 0.00 0.00 53 1009.3
20260507131602 22 219 8.0 29.0 0.00 0.00 0.00 50 1009.3
20260507130108 22 261 8.0 30.6 0.00 0.00 0.00 49 1009.3
20260507124555 23 184 11.3 30.6 0.00 0.00 0.00 46 1009.4
20260507123052 22 276 9.7 25.7 0.00 0.00 0.00 45 1009.8
20260507121602 23 222 11.3 29.0 0.00 0.00 0.00 41 1009.8
20260507120050 23 290 9.7 30.6 0.00 0.00 0.00 40 1009.7
20260507114604 24 238 16.1 41.8 0.00 0.00 0.00 35 1009.8
20260507113051 24 344 11.3 25.7 0.00 0.00 0.00 36 1009.6
20260507111549 24 187 6.4 22.5 0.00 0.00 0.00 36 1009.9
20260507110049 24 236 6.4 20.9 0.00 0.00 0.00 35 1010.0
20260507104546 24 256 4.8 24.1 0.00 0.00 0.00 35 1009.8
20260507103045 23 261 6.4 24.1 0.00 0.00 0.00 35 1009.9
20260507101543 24 242 3.2 22.5 0.00 0.00 0.00 35 1010.3
20260507100041 23 306 4.8 24.1 0.00 0.00 0.00 35 1010.5
20260507094540 23 209 6.4 29.0 0.00 0.00 0.00 36 1010.5
20260507093037 23 319 6.4 25.7 0.00 0.00 0.00 35 1010.6
20260507091533 22 341 4.8 22.5 0.00 0.00 0.00 40 1010.6
20260507090036 23 130 6.4 19.3 0.00 0.00 0.00 41 1010.6
20260507084529 22 230 3.2 17.7 0.00 0.00 0.00 43 1010.7
20260507083028 22 280 3.2 17.7 0.00 0.00 0.00 44 1010.8
20260507081539 21 187 1.6 14.5 0.00 0.00 0.00 46 1010.9
20260507080022 21 183 6.4 16.1 0.00 0.00 0.00 43 1011.1
20260507074532 20 325 1.6 16.1 0.00 0.00 0.00 47 1011.3
20260507073014 20 282 1.6 14.5 0.00 0.00 0.00 51 1011.5
20260507071509 18 290 1.6 12.9 0.00 0.00 0.00 59 1011.7
20260507070010 17 226 0.0 8.0 0.00 0.00 0.00 64 1011.7
20260507064506 17 286 0.0 0.0 0.00 0.00 0.00 67 1011.9
20260507063003 17 284 0.0 0.0 0.00 0.00 0.00 69 1012.2
20260507061503 17 284 0.0 0.0 0.00 0.00 0.00 70 1012.2
20260507060001 17 224 0.0 9.7 0.00 0.00 0.00 71 1012.2
20260507054501 16 255 1.6 12.9 0.00 0.00 0.00 73 1012.2
20260507053001 16 265 4.8 19.3 0.00 0.00 0.00 79 1012.1
20260507051558 16 198 1.6 8.0 0.00 0.00 0.00 80 1012.2
20260507050056 16 279 0.0 4.8 0.00 0.00 0.00 82 1012.2
20260507044559 16 262 0.0 11.3 0.00 0.00 0.00 82 1012.2
20260507043050 16 255 0.0 11.3 0.00 0.00 0.00 81 1012.5
20260507041559 17 158 0.0 12.9 0.00 0.00 0.00 77 1012.3
20260507040048 17 259 1.6 11.3 0.00 0.00 0.00 68 1012.5
20260507034556 16 223 0.0 8.0 0.00 0.00 0.00 63 1012.3
20260507033052 16 49 0.0 0.0 0.00 0.00 0.00 67 1012.2
20260507031602 17 49 0.0 0.0 0.00 0.00 0.00 65 1012.3
20260507030053 17 48 0.0 4.8 0.00 0.00 0.00 63 1012.4
20260507024547 17 140 0.0 12.9 0.00 0.00 0.00 65 1012.3
20260507023047 17 134 4.8 9.7 0.00 0.00 0.00 68 1012.0
20260507021543 17 262 1.6 12.9 0.00 0.00 0.00 69 1012.4
20260507020047 16 148 0.0 20.9 0.00 0.00 0.00 77 1012.5
20260507014549 16 251 0.0 9.7 0.00 0.00 0.00 82 1012.3
20260507013044 16 240 1.6 12.9 0.00 0.00 0.00 82 1012.5
20260507011542 16 65 1.6 11.3 0.00 0.00 0.00 83 1012.8
20260507010042 16 111 0.0 11.3 0.00 0.00 0.00 82 1012.8
20260507004537 16 286 1.6 14.5 0.00 0.00 0.00 81 1012.7
20260507003038 16 219 4.8 11.3 0.00 0.00 0.00 81 1012.7
20260507001537 16 252 1.6 16.1 0.00 0.00 0.00 80 1013.1
20260507000039 16 5 0.0 9.7 0.00 0.00 0.00 79 1013.0